Time,TemperatureF,DewpointF,PressureIn,WindDirection,WindDirectionDegrees,WindSpeedMPH,WindSpeedGustMPH,Humidity,HourlyPrecipIn,Conditions,Clouds,dailyrainin,SoftwareType,DateUTC
2013-03-11 06:22:00,65.0,58.0,30.00,ENE,57,1.0,5.0,78,0.00,,,1.09,,2013-03-11 16:22:00,
2013-03-11 06:32:00,66.0,58.0,30.00,NNE,30,0.0,5.0,76,0.00,,,1.09,,2013-03-11 16:32:00,
2013-03-11 06:43:00,66.0,58.0,30.00,NNE,30,0.0,5.0,76,0.00,,,1.09,,2013-03-11 16:43:00,
2013-03-11 06:52:00,67.0,58.0,30.01,NNE,30,0.0,4.0,74,0.00,,,1.09,,2013-03-11 16:52:00,
2013-03-11 07:02:00,66.0,58.0,30.01,NNE,30,0.0,0.0,75,0.00,,,1.09,,2013-03-11 17:02:00,
2013-03-11 07:12:00,66.0,58.0,30.01,NNE,30,0.0,0.0,75,0.00,,,1.09,,2013-03-11 17:12:00,
2013-03-11 07:23:00,66.0,59.0,30.02,NNE,30,0.0,0.0,79,0.00,,,0.79,,2013-03-11 17:23:00,
2013-03-11 07:33:00,66.0,58.0,30.02,NNE,12,3.0,5.0,75,0.00,,,0.79,,2013-03-11 17:33:00,
2013-03-11 07:41:00,66.0,58.0,30.02,NNE,12,3.0,5.0,75,0.00,,,0.79,,2013-03-11 17:41:00,
2013-03-11 07:52:00,68.0,59.0,30.03,NNE,12,2.0,3.0,73,0.00,,,0.79,,2013-03-11 17:52:00,
2013-03-11 08:01:00,67.0,61.0,30.04,ENE,67,5.0,7.0,80,0.00,,,0.79,,2013-03-11 18:01:00,
2013-03-11 08:11:00,67.0,61.0,30.04,ENE,67,5.0,7.0,80,0.00,,,0.79,,2013-03-11 18:11:00,
2013-03-11 08:22:00,67.0,62.0,30.04,ESE,109,4.0,8.0,85,0.00,,,0.78,,2013-03-11 18:22:00,
2013-03-11 08:32:00,68.0,63.0,30.05,ESE,109,1.0,4.0,83,0.00,,,0.78,,2013-03-11 18:32:00,
2013-03-11 08:42:00,68.0,63.0,30.05,ESE,109,1.0,4.0,83,0.00,,,0.78,,2013-03-11 18:42:00,
2013-03-11 08:52:00,68.0,61.0,30.06,ESE,109,0.0,4.0,78,0.00,,,0.78,,2013-03-11 18:52:00,
2013-03-11 09:01:00,69.0,60.0,30.06,ESE,109,2.0,4.0,74,0.00,,,0.78,,2013-03-11 19:01:00,
2013-03-11 09:22:00,69.0,60.0,30.07,ESE,109,3.0,4.0,74,0.00,,,0.75,,2013-03-11 19:22:00,
2013-03-11 09:32:00,69.0,61.0,30.07,ESE,109,3.0,5.0,76,0.00,,,0.75,,2013-03-11 19:32:00,
2013-03-11 09:42:00,69.0,61.0,30.07,ESE,109,3.0,5.0,76,0.00,,,0.75,,2013-03-11 19:42:00,
2013-03-11 09:52:00,70.0,62.0,30.08,NW,318,3.0,5.0,77,0.00,,,0.75,,2013-03-11 19:52:00,
2013-03-11 10:01:00,70.0,62.0,30.08,WNW,300,2.0,4.0,76,0.00,,,0.75,,2013-03-11 20:01:00,
2013-03-11 10:11:00,70.0,62.0,30.08,WNW,300,2.0,4.0,76,0.00,,,0.75,,2013-03-11 20:11:00,
2013-03-11 10:21:00,71.0,62.0,30.08,West,280,2.0,5.0,74,0.00,,,0.68,,2013-03-11 20:21:00,
2013-03-11 10:32:00,71.0,61.0,30.08,West,280,3.0,5.0,71,0.00,,,0.68,,2013-03-11 20:32:00,
2013-03-11 10:52:00,72.0,62.0,30.08,West,280,0.0,3.0,72,0.00,,,0.68,,2013-03-11 20:52:00,
2013-03-11 11:02:00,74.0,64.0,30.09,West,280,2.0,3.0,70,0.00,,,0.68,,2013-03-11 21:02:00,
2013-03-11 11:11:00,74.0,64.0,30.09,West,280,2.0,3.0,70,0.00,,,0.68,,2013-03-11 21:11:00,
2013-03-11 11:22:00,74.0,62.0,30.08,SSW,199,5.0,7.0,67,0.00,,,0.67,,2013-03-11 21:22:00,
2013-03-11 11:31:00,75.0,63.0,30.07,South,173,4.0,7.0,66,0.00,,,0.67,,2013-03-11 21:31:00,
2013-03-11 11:42:00,75.0,63.0,30.07,South,173,4.0,7.0,66,0.00,,,0.67,,2013-03-11 21:42:00,
2013-03-11 11:52:00,75.0,62.0,30.07,SE,144,7.0,12.0,65,0.00,,,0.67,,2013-03-11 21:52:00,
2013-03-11 12:01:00,74.0,62.0,30.06,SE,143,7.0,11.0,66,0.00,,,0.67,,2013-03-11 22:01:00,
2013-03-11 12:11:00,74.0,62.0,30.06,SE,143,7.0,11.0,66,0.00,,,0.67,,2013-03-11 22:11:00,
2013-03-11 12:21:00,74.0,63.0,30.06,SE,132,4.0,13.0,69,0.00,,,0.67,,2013-03-11 22:21:00,
2013-03-11 12:32:00,75.0,63.0,30.05,SW,236,5.0,12.0,66,0.00,,,0.67,,2013-03-11 22:32:00,
2013-03-11 12:42:00,75.0,63.0,30.05,SW,236,5.0,12.0,66,0.00,,,0.67,,2013-03-11 22:42:00,
2013-03-11 12:53:00,76.0,63.0,30.04,SE,125,5.0,9.0,64,0.00,,,0.67,,2013-03-11 22:53:00,
2013-03-11 13:02:00,76.0,62.0,30.03,South,183,3.0,6.0,63,0.00,,,0.67,,2013-03-11 23:02:00,
2013-03-11 13:12:00,76.0,62.0,30.03,South,183,3.0,6.0,63,0.00,,,0.67,,2013-03-11 23:12:00,
2013-03-11 13:21:00,76.0,63.0,30.03,SE,143,3.0,7.0,64,0.00,,,0.59,,2013-03-11 23:21:00,
2013-03-11 13:32:00,76.0,63.0,30.02,SE,137,5.0,12.0,65,0.00,,,0.59,,2013-03-11 23:32:00,
2013-03-11 13:42:00,76.0,63.0,30.02,SE,137,5.0,12.0,65,0.00,,,0.59,,2013-03-11 23:42:00,
2013-03-11 13:53:00,76.0,65.0,30.01,SSE,159,6.0,13.0,68,0.00,,,0.59,,2013-03-11 23:53:00,
2013-03-11 14:01:00,77.0,65.0,30.01,SE,143,5.0,14.0,66,0.00,,,0.59,,2013-03-12 00:01:00,
2013-03-11 14:12:00,77.0,65.0,30.01,SE,143,5.0,14.0,66,0.00,,,0.59,,2013-03-12 00:12:00,
2013-03-11 14:22:00,76.0,64.0,30.00,SE,144,8.0,13.0,67,0.00,,,0.49,,2013-03-12 00:22:00,
2013-03-11 14:32:00,76.0,64.0,29.99,SSE,161,7.0,12.0,67,0.00,,,0.49,,2013-03-12 00:32:00,
2013-03-11 14:42:00,76.0,64.0,29.99,SSE,161,7.0,12.0,67,0.00,,,0.49,,2013-03-12 00:42:00,
2013-03-11 14:53:00,76.0,65.0,29.99,South,170,6.0,10.0,68,0.00,,,0.49,,2013-03-12 00:53:00,
2013-03-11 15:01:00,76.0,65.0,29.99,SSE,151,6.0,12.0,68,0.00,,,0.49,,2013-03-12 01:01:00,
2013-03-11 15:11:00,76.0,65.0,29.99,SSE,151,6.0,12.0,68,0.00,,,0.49,,2013-03-12 01:11:00,
2013-03-11 15:21:00,76.0,64.0,29.98,SE,143,4.0,13.0,67,0.00,,,0.47,,2013-03-12 01:21:00,
2013-03-11 15:32:00,77.0,64.0,29.98,SE,143,5.0,7.0,64,0.00,,,0.47,,2013-03-12 01:32:00,
2013-03-11 15:42:00,77.0,64.0,29.98,SE,143,5.0,7.0,64,0.00,,,0.47,,2013-03-12 01:42:00,
2013-03-11 15:52:00,76.0,64.0,29.98,South,182,5.0,12.0,66,0.00,,,0.47,,2013-03-12 01:52:00,
2013-03-11 16:01:00,76.0,65.0,29.98,SSE,152,2.0,7.0,68,0.00,,,0.47,,2013-03-12 02:01:00,
2013-03-11 16:11:00,76.0,65.0,29.98,SSE,152,2.0,7.0,68,0.00,,,0.47,,2013-03-12 02:11:00,
2013-03-11 16:21:00,76.0,65.0,29.98,SW,219,0.0,7.0,70,0.00,,,0.41,,2013-03-12 02:21:00,
2013-03-11 16:31:00,74.0,65.0,29.98,NNE,14,5.0,12.0,73,0.00,,,0.41,,2013-03-12 02:31:00,
2013-03-11 16:42:00,74.0,65.0,29.98,NNE,14,5.0,12.0,73,0.00,,,0.41,,2013-03-12 02:42:00,
2013-03-11 16:52:00,72.0,63.0,29.98,NNW,346,6.0,9.0,74,0.00,,,0.41,,2013-03-12 02:52:00,
2013-03-11 17:01:00,72.0,64.0,29.99,NNE,17,5.0,11.0,76,0.00,,,0.41,,2013-03-12 03:01:00,
2013-03-11 17:11:00,72.0,64.0,29.99,NNE,17,5.0,11.0,76,0.00,,,0.41,,2013-03-12 03:11:00,
2013-03-11 17:22:00,71.0,63.0,29.99,ENE,76,6.0,9.0,77,0.00,,,0.35,,2013-03-12 03:22:00,
2013-03-11 17:32:00,70.0,63.0,30.00,NNE,28,7.0,13.0,78,0.00,,,0.35,,2013-03-12 03:32:00,
2013-03-11 17:42:00,70.0,63.0,30.00,NNE,28,7.0,13.0,78,0.00,,,0.35,,2013-03-12 03:42:00,
2013-03-11 17:52:00,70.0,63.0,30.00,NE,38,5.0,12.0,79,0.00,,,0.35,,2013-03-12 03:52:00,
2013-03-11 18:01:00,70.0,63.0,29.99,ENE,69,5.0,10.0,78,0.00,,,0.35,,2013-03-12 04:01:00,
2013-03-11 18:12:00,70.0,63.0,29.99,ENE,69,5.0,10.0,78,0.00,,,0.35,,2013-03-12 04:12:00,
2013-03-11 18:22:00,70.0,63.0,30.00,NE,42,4.0,12.0,79,0.00,,,0.34,,2013-03-12 04:22:00,
2013-03-11 18:32:00,69.0,63.0,30.00,ENE,70,2.0,9.0,80,0.00,,,0.34,,2013-03-12 04:32:00,
2013-03-11 18:42:00,69.0,63.0,30.00,ENE,70,2.0,9.0,80,0.00,,,0.34,,2013-03-12 04:42:00,
2013-03-11 18:52:00,69.0,63.0,30.00,ENE,61,5.0,10.0,81,0.00,,,0.34,,2013-03-12 04:52:00,
2013-03-11 19:02:00,69.0,63.0,30.01,NE,36,3.0,9.0,81,0.00,,,0.34,,2013-03-12 05:02:00,
2013-03-11 19:11:00,69.0,63.0,30.01,NE,36,3.0,9.0,81,0.00,,,0.34,,2013-03-12 05:11:00,
2013-03-11 19:21:00,68.0,62.0,30.02,NE,42,3.0,10.0,81,0.00,,,0.23,,2013-03-12 05:21:00,
2013-03-11 19:31:00,68.0,62.0,30.02,NE,37,2.0,10.0,80,0.00,,,0.23,,2013-03-12 05:31:00,
2013-03-11 19:41:00,68.0,62.0,30.02,NE,37,2.0,10.0,80,0.00,,,0.23,,2013-03-12 05:41:00,
2013-03-11 19:52:00,69.0,63.0,30.03,NNE,15,3.0,9.0,80,0.00,,,0.23,,2013-03-12 05:52:00,
2013-03-11 20:01:00,68.0,62.0,30.04,NNE,24,1.0,8.0,80,0.00,,,0.23,,2013-03-12 06:01:00,
2013-03-11 20:11:00,68.0,62.0,30.04,NNE,24,1.0,8.0,80,0.00,,,0.23,,2013-03-12 06:11:00,
2013-03-11 20:21:00,68.0,62.0,30.05,NE,37,4.0,9.0,81,0.00,,,0.02,,2013-03-12 06:21:00,
2013-03-11 20:31:00,69.0,63.0,30.05,NNE,17,5.0,9.0,80,0.00,,,0.02,,2013-03-12 06:31:00,
2013-03-11 20:42:00,69.0,63.0,30.05,NNE,17,5.0,9.0,80,0.00,,,0.02,,2013-03-12 06:42:00,
2013-03-11 20:52:00,68.0,62.0,30.06,NNE,31,4.0,9.0,81,0.00,,,0.02,,2013-03-12 06:52:00,
2013-03-11 21:01:00,68.0,62.0,30.06,ENE,59,5.0,11.0,81,0.00,,,0.02,,2013-03-12 07:01:00,
2013-03-11 21:12:00,68.0,62.0,30.06,ENE,59,5.0,11.0,81,0.00,,,0.02,,2013-03-12 07:12:00,
2013-03-11 21:21:00,68.0,62.0,30.06,NE,36,4.0,8.0,81,0.00,,,0.00,,2013-03-12 07:21:00,
2013-03-11 21:32:00,68.0,62.0,30.07,NNE,18,3.0,10.0,81,0.00,,,0.00,,2013-03-12 07:32:00,
2013-03-11 21:41:00,68.0,62.0,30.07,NNE,18,3.0,10.0,81,0.00,,,0.00,,2013-03-12 07:41:00,
2013-03-11 21:52:00,68.0,62.0,30.08,ENE,68,2.0,11.0,80,0.00,,,0.00,,2013-03-12 07:52:00,
2013-03-11 22:01:00,68.0,62.0,30.07,NE,55,4.0,8.0,80,0.00,,,0.00,,2013-03-12 08:01:00,
2013-03-11 22:12:00,68.0,62.0,30.07,NE,55,4.0,8.0,80,0.00,,,0.00,,2013-03-12 08:12:00,
2013-03-11 22:22:00,68.0,62.0,30.07,ENE,63,8.0,10.0,80,0.00,,,0.00,,2013-03-12 08:22:00,
2013-03-11 22:32:00,68.0,62.0,30.07,ENE,63,8.0,10.0,80,0.00,,,0.00,,2013-03-12 08:32:00,
2013-03-11 22:41:00,68.0,62.0,30.07,ENE,63,8.0,10.0,80,0.00,,,0.00,,2013-03-12 08:41:00,
2013-03-11 22:52:00,68.0,62.0,30.07,ENE,63,8.0,10.0,80,0.00,,,0.00,,2013-03-12 08:52:00,